Theta_e
358 358 359 359 360 360 360 358 359 360 361 360 360 359 358 358 359 358 359 359 357 357 357 355 357 358 357 358 359 361 361 361 361 361 361 360 361 359 360 361 360 359 359 359 359 359 359 358 357 357 357 358 357 357 357 357 357 356 356 357 357 357 357 357 357 357 357 356 357 357 357 358 356 356 356 356 356 356 356 356 356 356 356 356 356
358 359 359 359 360 360 360 359 359 360 358 359 360 358 358 359 359 359 358 360 358 357 357 354 352 353 356 355 356 357 361 360 361 360 363 362 363 361 359 360 360 360 359 359 359 359 359 359 358 358 358 358 358 357 357 357 357 357 357 357 357 357 357 358 358 357 358 357 358 357 358 358 358 357 357 358 358 358 359 358 358 358 358 358 358
358 359 360 359 359 360 359 359 359 359 362 362 362 362 361 361 360 360 361 362 358 357 357 356 356 353 355 354 355 359 358 362 358 359 357 362 363 364 363 359 359 359 361 360 359 359 359 359 359 359 359 358 358 358 358 358 358 358 358 358 358 357 358 358 358 358 357 358 359 359 359 359 358 358 358 359 359 359 360 359 359 359 359 359 359
362 360 358 357 358 358 359 359 358 362 364 362 361 363 363 363 365 365 363 364 360 359 360 357 355 353 355 353 356 357 357 359 355 356 359 362 364 365 365 361 359 358 359 360 361 360 360 359 359 359 359 359 359 359 358 358 358 358 359 359 358 358 358 359 361 358 359 360 360 360 360 360 359 359 359 359 360 361 360 360 360 360 360 360 360
362 361 359 357 357 359 357 361 361 362 362 362 363 364 363 362 363 364 365 362 357 357 357 354 353 355 354 353 355 355 358 359 360 359 357 360 363 363 365 364 363 360 360 359 360 360 361 361 361 361 361 361 360 360 361 361 361 361 361 361 361 360 360 360 361 361 362 362 362 362 362 362 360 360 360 361 361 362 362 361 362 362 361 361 361
362 362 360 357 359 359 359 359 360 362 362 363 361 361 361 361 360 360 359 358 354 356 354 353 352 355 355 353 355 358 358 356 357 357 358 359 361 365 364 365 365 365 363 360 360 360 361 361 362 362 362 362 362 362 362 363 363 363 364 363 363 363 363 362 362 363 364 364 364 364 364 363 361 362 362 363 363 364 364 364 363 363 362 362 362
365 363 360 359 356 357 358 357 361 362 361 361 361 361 361 360 360 358 358 358 355 358 355 354 353 354 357 357 355 356 358 357 359 359 360 363 364 361 364 364 364 366 365 363 361 361 359 360 361 362 363 363 363 364 365 364 365 364 364 365 364 364 364 364 363 364 364 364 365 365 364 363 364 364 365 365 364 364 364 364 363 363 363 363 362
365 365 361 359 357 357 357 361 363 361 361 362 363 361 362 362 362 360 356 353 357 355 358 357 355 352 355 358 357 358 358 358 359 357 357 362 362 363 364 365 366 365 365 366 366 366 359 360 361 361 362 363 364 364 365 366 366 366 366 365 366 366 365 365 365 365 365 365 365 366 364 365 366 366 366 365 365 364 364 364 363 363 363 362 362
365 364 362 359 358 357 357 360 363 360 361 361 361 362 363 358 364 365 364 360 357 353 356 357 354 354 353 352 354 359 357 360 358 359 358 361 361 359 361 364 366 363 369 367 368 367 365 360 360 360 361 362 362 362 362 364 366 367 368 369 369 368 368 368 367 366 366 366 367 367 366 366 366 366 366 365 364 364 364 363 362 362 361 359 359
365 364 362 359 359 358 359 361 362 363 361 362 362 363 364 362 362 365 364 363 358 355 353 354 355 352 354 352 357 356 358 360 361 361 362 361 363 362 362 362 362 361 364 366 363 366 367 365 361 360 361 360 359 360 361 362 364 365 366 368 369 369 369 369 368 367 367 367 367 368 368 367 366 365 365 364 364 364 362 361 359 358 356 355 354
365 364 363 360 360 359 360 362 362 362 363 360 360 362 362 362 361 363 366 363 361 360 359 361 353 350 349 351 355 362 362 359 363 362 360 357 358 360 359 364 363 364 366 366 362 365 368 368 368 368 369 362 360 360 362 362 362 362 363 365 366 368 369 369 370 369 369 368 369 369 367 366 365 365 364 364 363 362 359 356 354 355 354 353 353
366 365 363 361 358 359 360 361 362 363 361 359 359 360 361 361 362 360 361 361 362 362 360 359 353 352 352 352 355 357 360 360 361 360 361 361 360 362 357 359 364 363 360 363 364 362 366 369 370 368 367 366 362 361 361 361 361 361 361 361 363 365 366 367 369 370 370 369 369 367 365 365 365 365 364 363 362 359 355 354 354 354 353 353 353
367 366 363 362 361 360 362 362 363 363 363 362 362 361 365 364 363 366 359 358 356 358 358 360 356 350 356 350 352 356 354 361 358 356 356 357 359 360 361 361 361 362 365 364 365 363 363 368 369 370 370 371 370 366 363 362 362 360 360 362 365 367 368 368 368 368 370 370 367 365 366 365 365 365 364 362 360 357 354 354 354 353 353 353 353
370 369 367 364 362 360 362 362 364 365 365 365 365 364 363 362 361 359 362 358 356 356 356 359 350 346 345 346 349 351 356 353 352 351 354 355 356 359 361 357 354 356 362 365 365 361 360 363 370 366 370 371 370 370 374 371 369 363 363 364 365 367 368 369 370 370 371 368 366 366 365 365 364 364 361 360 357 356 353 352 353 353 353 352 350
371 370 368 365 364 362 361 364 365 365 364 363 364 362 361 359 360 358 357 360 359 360 362 359 345 350 353 352 342 344 352 355 353 351 350 352 354 352 354 352 352 356 361 362 363 366 361 363 366 368 370 371 369 369 370 370 368 363 365 364 365 366 369 371 373 373 370 367 366 365 366 365 364 362 358 360 356 355 353 353 353 353 352 351 349
367 368 368 368 367 363 362 362 366 367 365 363 363 361 362 361 359 360 361 354 350 352 358 362 357 353 344 345 344 345 337 343 348 349 348 348 350 348 351 351 352 358 361 360 354 362 366 367 364 367 370 370 369 369 370 369 367 367 367 366 366 365 368 371 372 371 368 366 366 366 365 364 363 362 359 358 357 353 354 354 352 351 351 351 349
366 367 367 369 369 367 363 364 365 366 366 363 362 360 361 361 363 362 361 356 349 351 356 357 359 362 354 349 343 339 339 342 345 346 346 343 344 346 352 352 349 357 356 354 361 363 358 357 365 366 368 369 370 369 370 370 370 373 375 372 369 368 369 370 369 367 366 366 366 366 366 364 363 362 359 357 358 354 353 352 351 350 350 350 348
366 366 366 367 368 368 366 364 363 365 364 362 363 364 363 362 363 362 361 363 360 353 350 361 356 366 361 355 352 344 344 347 346 339 359 347 348 345 347 347 348 352 362 356 354 354 363 358 362 364 367 365 367 368 367 370 372 373 375 376 370 371 370 365 367 366 365 365 366 366 366 364 363 362 359 358 356 355 353 352 351 350 350 350 348
364 365 365 368 369 368 367 365 363 364 366 365 363 362 362 362 364 364 364 366 364 356 351 349 358 359 356 354 355 355 350 349 343 350 341 349 350 346 347 350 349 348 349 347 348 349 357 358 354 355 360 364 364 366 370 370 369 369 369 369 368 371 370 365 364 366 366 365 366 367 365 365 363 362 361 359 357 355 354 351 351 350 350 349 347
364 366 366 366 368 368 368 365 363 362 362 363 362 363 365 366 366 367 369 368 363 358 354 351 350 352 356 353 355 357 358 355 352 349 346 345 344 348 349 349 348 345 346 346 346 348 349 358 351 352 358 361 365 367 368 371 372 373 370 366 366 369 368 365 363 365 367 366 366 367 365 364 364 363 361 360 359 357 354 352 351 350 349 348 346
366 365 366 366 367 367 368 366 363 362 364 362 361 363 365 364 365 365 365 367 364 361 361 356 352 349 355 355 357 356 355 355 356 356 349 344 339 342 345 349 348 349 352 352 351 351 351 353 353 354 361 365 366 366 364 369 372 375 368 367 368 369 367 364 362 366 369 367 366 366 367 365 364 364 363 361 359 358 355 353 352 351 349 348 345
366 367 367 366 366 367 364 363 362 361 362 362 362 363 364 365 366 365 367 365 366 363 358 358 357 358 358 360 357 357 357 357 352 350 349 351 341 341 343 344 343 349 355 349 352 352 353 353 353 351 354 361 363 365 367 370 375 368 366 362 367 365 364 362 362 365 367 367 366 365 365 366 364 364 364 362 360 358 356 354 353 352 350 348 345
362 366 366 365 365 366 362 362 363 364 363 363 363 360 360 362 365 367 368 366 362 364 360 362 361 361 359 360 356 351 352 350 352 352 350 346 345 341 342 344 343 345 352 355 356 352 353 354 352 351 360 361 366 367 370 369 370 365 363 363 363 364 363 363 362 362 361 361 364 365 366 365 365 364 363 361 359 359 356 355 354 353 351 348 345
364 362 362 362 366 364 365 364 364 364 363 364 365 363 362 364 366 367 367 367 366 364 362 359 357 360 356 354 355 354 356 354 352 355 354 351 349 347 345 351 350 346 350 360 354 352 353 355 356 356 359 363 369 370 373 372 372 365 369 365 361 361 362 364 363 361 360 360 360 361 362 363 363 363 363 363 362 360 358 357 355 354 352 349 345
362 361 361 363 365 365 365 364 364 365 365 366 365 367 367 364 366 366 366 365 364 364 361 358 356 357 353 354 354 354 354 356 358 354 354 353 353 349 346 348 345 345 351 354 350 350 352 355 361 360 362 368 366 372 369 368 366 367 364 363 360 362 361 361 362 360 359 358 359 360 362 365 362 362 361 361 362 362 360 359 357 354 353 349 346
361 362 362 362 363 364 366 365 367 367 366 366 366 367 368 366 366 365 363 366 366 364 363 361 361 361 360 357 354 353 353 355 355 355 352 352 351 348 351 353 347 345 354 357 357 347 350 358 360 366 364 366 367 370 373 366 365 364 360 364 363 358 359 358 359 359 359 357 357 358 359 361 364 364 363 362 361 362 362 360 359 356 354 352 348
362 364 366 364 364 365 365 364 365 367 367 366 365 366 368 368 367 366 366 366 366 365 362 360 356 358 360 360 357 355 355 356 353 355 354 353 352 352 352 347 343 344 346 352 353 350 347 357 358 361 367 373 368 372 372 370 366 362 363 375 374 360 356 355 355 356 356 356 356 357 357 358 360 363 364 363 361 362 362 362 361 358 355 352 349
367 367 367 365 364 363 365 364 367 366 368 368 367 365 368 367 367 367 365 363 365 365 364 362 359 360 358 361 359 353 356 355 357 357 356 356 356 357 356 354 347 342 346 345 346 347 351 350 357 361 365 367 369 367 368 369 367 364 367 376 375 373 362 355 353 351 350 350 351 353 353 355 357 360 361 363 361 361 362 362 362 360 356 354 350
366 367 367 367 365 365 364 363 367 368 367 368 367 367 368 367 364 368 365 364 366 365 364 364 364 359 359 359 359 359 359 363 360 358 362 365 360 359 358 353 354 348 344 343 349 344 349 351 347 359 367 364 367 365 365 369 366 367 367 371 370 374 361 351 349 347 347 347 349 350 352 354 356 358 360 361 360 360 361 361 361 360 358 355 352
364 362 367 367 368 367 367 367 366 366 366 366 367 367 368 366 366 368 365 368 366 366 365 363 362 363 361 360 360 358 361 360 358 358 363 364 360 359 359 360 359 352 350 345 346 350 348 351 352 352 362 363 358 360 360 365 363 367 366 367 366 365 352 349 350 349 348 347 347 347 349 351 353 354 353 353 352 353 355 357 358 359 358 357 355
366 366 367 365 366 367 369 367 367 367 367 367 368 368 369 367 367 365 367 369 366 365 368 366 363 363 363 360 363 360 363 360 360 357 361 362 360 359 360 363 360 359 356 353 346 353 353 350 353 356 356 360 358 358 357 361 363 364 366 369 370 361 352 364 355 351 349 347 345 345 345 346 347 347 347 347 349 351 353 356 357 357 357 356 356
363 365 365 364 364 364 363 363 362 364 366 366 366 367 369 368 367 364 366 368 366 365 365 367 363 364 363 362 363 363 364 363 362 359 359 363 362 358 359 361 362 362 361 355 351 350 358 353 354 357 357 359 360 359 359 360 361 359 371 370 374 364 369 366 358 354 351 347 345 344 342 342 341 343 345 347 348 350 353 355 354 354 355 355 354
364 363 363 365 366 364 363 365 363 365 367 367 367 368 369 368 368 368 368 370 367 365 367 366 365 366 366 364 364 364 366 363 362 360 356 356 360 360 361 360 355 359 359 356 351 351 356 363 357 355 358 361 356 362 359 358 360 363 362 368 372 368 365 364 365 356 353 348 345 343 342 341 340 340 343 346 347 349 351 353 351 351 351 349 348
365 362 364 363 365 365 364 365 366 366 368 370 366 366 367 366 366 364 366 368 368 368 367 367 367 366 366 365 364 364 365 364 362 358 357 355 356 355 356 356 355 356 361 356 353 353 352 356 358 360 357 361 356 362 360 359 359 363 361 363 363 363 362 364 364 361 355 349 344 341 341 340 339 340 341 343 345 346 347 346 344 343 342 342 338
365 364 364 363 366 367 366 366 368 367 369 368 368 368 367 367 366 364 363 366 366 366 366 367 366 367 365 365 363 364 362 361 362 360 359 360 359 358 358 359 359 357 359 362 357 353 353 354 359 356 357 360 359 359 362 361 365 366 368 365 359 358 361 362 362 359 354 350 346 343 341 340 339 339 338 339 341 341 341 340 336 334 334 332 330
363 366 365 365 367 368 366 367 368 368 368 367 367 368 368 368 368 368 368 367 366 366 365 365 366 366 364 364 363 363 364 364 364 364 363 362 362 362 362 363 363 360 361 362 363 359 357 354 359 359 359 359 360 361 362 364 363 364 363 364 364 363 362 361 362 362 356 350 347 343 341 340 339 338 337 337 336 334 333 332 331 331 331 331 330
362 364 367 368 368 368 364 366 367 368 367 368 368 366 367 368 368 367 367 368 367 367 366 367 366 367 366 364 363 364 365 364 364 362 363 364 365 363 361 361 362 361 362 363 363 363 360 357 357 362 365 364 364 365 366 362 362 364 367 368 366 365 367 363 361 360 353 346 344 342 341 341 341 339 339 338 337 336 334 333 331 331 330 329 328
361 360 363 364 365 367 366 366 367 368 369 369 369 369 366 367 368 367 367 368 366 367 366 366 367 366 365 366 366 366 364 362 362 363 366 366 366 363 363 364 364 364 365 364 365 364 362 360 361 359 364 360 362 364 367 366 360 359 362 364 366 370 370 364 361 360 360 360 361 359 350 349 347 343 342 341 338 335 335 334 333 331 329 327 324
358 357 358 361 364 363 365 364 363 365 367 366 369 370 368 368 368 368 364 365 366 366 366 364 364 365 365 365 366 366 366 365 363 363 364 365 364 365 366 367 366 365 363 363 363 362 361 360 360 361 360 363 364 360 365 369 366 363 361 359 359 363 368 370 367 364 362 361 359 352 353 352 348 350 345 337 335 334 334 334 333 332 331 328 325
357 356 356 356 358 360 361 361 364 365 366 365 367 369 368 366 365 366 366 365 363 364 364 366 364 363 364 364 363 364 365 366 365 365 365 364 365 364 365 365 366 365 362 361 361 360 359 357 356 355 358 360 363 365 366 368 365 365 366 360 356 358 361 366 369 366 368 368 364 356 352 350 350 348 337 337 338 338 338 338 339 339 338 334 329
357 357 358 357 357 358 360 361 362 362 360 361 363 365 366 367 366 363 365 365 365 364 364 362 362 364 364 362 361 361 366 367 368 365 364 365 364 363 366 368 367 365 364 362 360 360 359 358 357 360 359 360 361 362 359 360 358 356 360 361 359 360 362 362 366 370 370 364 364 362 361 363 361 363 364 367 370 361 357 346 349 347 340 333 331
359 359 359 358 357 356 357 359 360 358 359 360 364 359 358 362 364 362 363 365 365 364 364 364 361 361 361 361 360 364 367 366 365 361 353 352 354 361 364 366 366 365 363 361 360 359 359 357 355 354 352 352 352 355 354 356 359 364 361 363 360 359 360 361 363 368 369 363 359 362 364 365 361 362 365 363 362 366 364 365 362 353 345 335 332
358 361 359 356 355 355 354 355 356 355 357 358 358 343 340 341 357 361 363 364 365 365 363 364 363 360 360 361 362 363 367 366 366 358 352 349 349 348 348 354 360 365 362 359 359 360 357 356 355 355 352 354 356 356 355 353 355 358 357 360 359 359 357 355 352 361 376 367 364 362 363 368 369 365 365 363 362 362 361 362 347 341 336 334 332
358 356 356 358 358 356 354 354 353 353 355 341 333 338 339 336 344 359 360 360 360 361 361 360 361 361 361 361 360 359 361 363 363 364 366 358 348 346 345 345 346 348 352 362 362 360 361 357 356 356 356 355 356 358 354 352 356 357 360 361 361 359 357 355 355 354 365 373 365 361 359 367 368 365 364 362 362 362 357 349 340 337 335 333 332
356 357 357 356 357 357 357 356 354 356 356 334 329 330 331 332 332 346 357 359 359 359 360 360 361 362 362 362 361 360 359 361 363 363 366 366 364 353 348 347 348 346 338 337 343 360 361 360 359 358 358 359 358 360 360 360 364 360 360 358 359 361 361 359 358 356 363 371 367 362 358 363 365 362 360 361 362 362 360 348 343 339 336 333 332
355 354 354 356 357 359 359 359 360 352 348 331 325 326 326 326 329 338 356 356 358 358 360 360 359 360 361 361 361 361 362 363 365 363 363 363 364 365 366 366 365 363 356 340 336 336 348 356 358 357 361 365 362 364 366 367 363 359 358 356 359 357 358 359 364 364 367 369 364 361 358 360 362 358 358 361 361 363 367 353 340 336 334 332 331
351 352 353 353 353 354 355 356 354 348 339 323 322 322 321 324 326 339 356 353 354 356 358 358 360 360 361 359 360 360 361 362 363 362 361 361 362 361 362 361 361 362 363 361 360 360 358 355 357 359 361 362 364 365 366 367 367 365 363 362 361 361 361 364 364 365 366 370 369 365 354 357 361 358 358 361 360 362 363 348 341 338 335 332 330
349 350 352 352 351 351 352 353 351 348 338 319 321 321 320 323 328 355 358 356 355 355 356 357 357 359 359 359 360 360 361 362 357 346 350 360 359 359 360 361 361 361 361 364 347 349 359 359 360 359 358 357 345 362 363 359 360 362 363 364 365 364 361 358 356 356 355 361 369 363 357 357 362 356 357 360 360 360 363 364 347 340 337 333 331
346 347 348 349 350 349 349 349 347 343 336 323 316 316 318 321 339 358 357 357 357 357 356 356 356 356 355 356 357 356 357 360 336 325 330 345 357 357 357 357 358 357 357 359 344 332 331 329 328 329 329 329 328 327 325 325 340 349 354 353 353 354 353 351 352 353 355 359 361 364 358 354 360 360 358 359 361 360 359 361 364 344 336 335 332
341 341 342 342 344 346 346 346 344 338 335 324 314 313 315 317 341 355 355 356 357 358 358 358 358 360 359 353 355 360 358 356 325 322 326 345 356 357 356 355 355 355 357 358 357 354 329 323 323 324 325 326 326 325 325 325 325 335 350 348 351 351 349 350 348 352 355 358 359 363 358 356 360 361 358 359 360 360 360 363 364 360 342 335 329
339 340 340 338 338 341 344 343 342 338 336 330 315 313 313 314 337 353 353 355 355 355 355 357 358 359 360 357 354 351 350 333 316 319 323 343 357 357 357 355 354 355 356 358 356 355 358 359 361 365 361 345 353 357 357 338 333 341 348 351 353 351 350 351 352 353 351 354 360 367 357 356 357 358 358 353 351 356 361 362 362 363 364 364 364
Wind_Speed
6 6 6 6 6 6 5 6 5 5 4 5 4 4 4 3 3 3 3 3 3 3 3 3 2 2 2 2 2 1 1 1 1 1 1 1 1 2 1 3 4 4 4 5 6 7 7 7 7 7 7 7 7 7 7 7 7 7 7 7 8 9 9 9 9 9 9 9 9 10 9 9 9 9 8 8 8 8 8 8 9 9 9 10 10
5 5 5 6 6 6 5 5 5 4 4 4 4 3 3 3 3 3 3 2 2 3 2 3 3 3 2 2 2 2 2 1 1 1 1 0 1 1 2 3 4 5 4 4 5 6 7 7 7 7 7 8 8 8 7 7 7 8 8 9 9 9 9 9 9 9 9 9 10 10 10 9 9 9 9 10 10 10 10 10 10 10 11 11 11
4 4 4 5 5 5 5 4 5 4 4 4 3 4 3 3 3 3 3 2 2 2 2 3 3 2 2 1 2 1 2 1 2 1 2 1 1 1 0 3 3 4 5 5 5 5 6 6 6 7 7 7 7 7 8 8 8 8 8 8 8 9 9 8 9 9 9 9 10 10 10 10 10 10 10 10 10 10 11 11 11 11 11 12 12
3 3 4 4 4 4 4 4 4 3 3 3 3 3 3 3 3 3 2 2 2 2 2 2 3 3 2 2 1 1 1 2 2 3 2 1 1 1 1 1 2 3 4 5 6 6 6 6 6 7 7 7 7 8 8 8 8 8 8 8 8 8 8 8 7 9 9 9 10 10 10 10 10 10 11 11 11 11 11 11 11 10 11 12 12
3 2 2 3 4 3 4 3 3 3 3 3 3 3 3 2 3 2 2 2 2 3 2 3 4 4 3 3 2 2 2 1 2 1 2 1 0 1 1 1 2 2 4 4 5 6 6 6 7 7 7 7 8 8 9 9 9 9 9 9 8 8 9 9 9 9 9 9 9 9 10 10 10 10 11 11 12 12 11 11 11 10 10 10 11
2 2 1 2 3 2 3 3 3 2 2 2 2 2 3 3 3 2 3 3 3 4 3 3 4 3 3 3 2 2 2 2 2 2 1 1 2 1 1 1 1 2 1 4 5 5 6 6 7 7 7 8 8 9 9 9 9 9 9 9 9 9 9 9 9 9 9 9 9 9 10 10 10 10 10 11 10 9 9 8 8 9 9 9 10
2 1 1 1 2 2 2 3 2 2 2 2 1 2 3 3 3 3 3 3 3 3 3 3 4 4 3 2 3 3 2 2 2 2 1 1 2 2 2 2 1 2 2 2 3 6 5 6 6 7 8 8 9 9 9 9 9 9 9 9 9 9 9 9 8 8 8 8 9 9 9 9 9 11 11 11 9 8 8 8 9 9 9 9 9
2 1 1 1 1 2 2 2 2 1 1 1 1 3 3 3 4 4 4 4 4 3 2 3 3 3 3 1 2 2 2 2 2 2 2 1 1 1 1 2 2 2 2 2 2 1 5 5 6 6 7 8 8 9 9 10 10 9 9 9 9 9 8 8 8 8 8 8 8 8 9 8 8 9 10 9 8 8 8 8 8 7 8 8 7
2 2 1 1 1 2 2 2 1 1 1 1 2 3 3 4 3 3 3 3 4 4 4 3 3 3 2 2 3 2 2 2 2 2 1 1 1 1 1 1 2 3 2 2 2 2 4 6 6 7 7 8 7 8 8 9 9 10 10 10 9 9 8 8 7 7 7 8 7 7 9 10 10 9 8 8 9 8 8 8 7 7 7 7 8
2 2 1 1 2 2 2 1 1 1 1 2 2 3 3 3 4 3 3 3 3 4 5 4 3 3 2 3 2 1 2 1 1 1 1 1 1 1 2 2 2 2 2 2 3 2 2 4 7 8 9 7 6 7 7 8 9 9 9 10 10 9 9 7 6 6 7 6 7 7 9 9 8 8 8 8 8 7 7 7 7 7 7 8 8
1 1 1 2 2 2 1 2 1 1 1 2 3 3 4 4 5 4 3 3 2 3 4 4 4 3 3 3 2 0 1 1 1 1 1 2 2 2 1 1 2 2 2 2 2 2 2 3 3 3 1 6 5 5 6 6 7 8 9 9 9 9 9 7 6 6 6 6 7 7 8 7 7 8 8 7 7 6 6 7 7 7 8 8 8
1 1 1 1 2 2 2 1 1 1 2 2 3 3 4 5 5 5 5 3 2 3 3 4 3 3 3 2 2 1 1 1 1 1 1 1 1 1 2 1 1 2 2 2 2 3 3 3 2 3 3 1 4 5 5 6 6 6 7 8 8 8 8 7 7 6 7 7 7 6 6 7 7 7 7 7 6 6 6 6 6 7 8 8 9
1 1 1 1 1 1 1 2 1 1 2 3 3 4 4 4 4 3 5 5 4 4 4 3 4 3 2 3 3 2 1 1 2 1 1 0 0 1 1 2 2 2 2 2 3 3 2 2 2 2 2 3 2 4 5 5 5 3 5 6 7 7 7 6 6 6 6 6 6 5 6 6 6 6 6 6 6 6 6 6 6 7 8 8 9
0 1 1 1 1 1 1 1 1 2 2 3 4 3 4 4 4 3 3 5 4 5 5 4 3 5 4 3 4 3 2 1 1 1 0 0 1 1 1 2 2 2 1 2 2 2 2 1 2 2 3 3 3 3 3 3 1 2 5 6 6 6 6 5 5 5 5 5 6 6 6 5 6 5 5 5 5 6 6 6 7 7 8 8 9
1 1 1 1 1 1 1 1 1 2 2 3 3 3 3 4 4 4 4 2 2 3 3 4 5 3 1 2 5 3 3 3 3 4 2 1 0 1 1 2 2 2 2 2 2 2 2 2 2 2 3 3 3 3 3 3 3 6 5 5 5 5 5 5 5 4 4 5 5 6 5 5 4 5 5 4 4 5 6 7 7 8 8 8 8
1 1 1 1 2 1 1 1 1 1 1 2 3 3 3 3 3 4 4 3 4 4 3 3 4 5 4 4 4 3 5 6 5 3 3 2 1 1 0 1 1 1 2 2 2 2 2 2 2 2 2 2 3 3 3 3 4 4 2 3 4 4 5 4 5 5 4 5 5 5 5 4 4 3 4 4 3 5 6 7 8 8 8 8 8
2 1 0 1 1 1 1 1 1 1 1 1 2 3 3 3 3 3 4 5 4 4 2 3 4 3 3 2 2 4 6 5 5 4 4 3 3 2 1 2 1 1 2 2 2 2 2 2 2 2 2 2 2 2 3 3 3 3 2 2 4 4 4 3 4 5 5 5 4 3 3 3 3 2 2 3 3 4 6 7 7 8 8 8 8
2 1 0 0 1 1 1 1 0 0 1 1 2 2 2 2 3 3 4 4 4 4 3 3 3 3 2 2 2 4 3 5 4 3 3 4 3 3 2 1 1 1 1 2 2 2 1 2 1 2 1 2 2 2 3 2 2 2 2 3 5 4 4 3 3 4 4 4 3 3 2 2 2 2 2 3 3 4 5 6 7 7 8 8 8
3 3 2 0 1 2 1 1 0 0 0 0 0 1 2 2 2 3 3 3 3 4 5 3 2 2 3 3 1 2 2 4 5 3 3 3 4 3 4 2 1 1 1 2 2 2 1 2 2 2 2 1 1 2 2 2 1 1 3 4 3 4 5 5 4 3 4 4 3 2 2 2 2 2 3 4 4 4 5 6 6 6 7 8 8
3 3 3 2 1 2 2 1 1 1 1 1 1 2 2 1 2 2 2 2 2 3 5 4 3 3 3 3 2 2 1 1 3 3 1 3 4 2 2 4 3 3 3 3 4 4 3 2 2 2 1 1 1 1 2 2 2 1 1 1 3 3 4 6 6 5 4 5 4 3 2 3 3 3 3 4 5 5 5 5 5 5 6 7 8
3 3 3 3 2 2 2 2 2 2 1 2 1 1 1 1 1 1 1 1 1 2 3 4 4 4 3 3 2 2 1 1 1 1 3 3 4 5 5 4 3 4 4 3 3 2 2 2 2 2 1 1 1 1 1 2 1 1 2 2 2 4 5 6 6 6 5 5 5 5 4 3 4 4 5 5 6 6 6 6 5 5 5 6 7
3 3 3 3 3 2 3 3 3 2 3 2 2 2 2 1 1 1 1 1 1 1 3 3 3 3 3 3 3 2 1 1 1 2 1 1 3 4 4 5 4 4 4 5 4 3 2 2 1 2 2 1 0 1 1 2 2 2 1 1 4 4 5 6 7 7 7 7 6 6 6 5 4 5 6 6 6 7 7 6 6 5 5 5 6
3 3 4 4 4 3 4 4 3 2 3 3 3 3 2 2 1 1 1 1 1 0 1 2 2 2 3 3 3 4 3 3 3 3 3 2 3 4 4 4 4 4 5 5 3 4 3 3 3 3 2 0 0 1 1 1 3 1 3 6 6 6 6 7 8 9 9 10 8 7 7 7 6 5 6 7 7 7 7 7 6 5 5 5 5
4 4 4 5 4 4 4 4 4 3 3 3 3 3 2 2 1 1 1 2 1 1 1 1 1 1 2 2 2 2 2 3 4 2 2 3 3 3 3 3 1 3 3 4 2 3 4 4 3 3 2 1 1 1 1 2 2 2 6 4 5 6 7 7 8 9 10 11 10 9 8 8 8 7 7 8 9 8 8 7 7 6 5 5 5
5 5 5 6 4 5 5 4 4 4 4 3 3 3 2 2 1 2 1 2 2 2 1 1 1 2 2 2 2 3 3 3 3 3 2 1 2 3 3 2 2 2 3 4 4 2 3 4 3 3 2 2 2 1 2 3 3 2 4 5 5 6 7 8 8 9 10 11 11 11 10 9 10 10 9 9 9 9 8 8 8 7 7 6 6
6 6 5 6 5 5 5 5 5 4 4 4 4 3 3 3 2 2 2 1 2 2 2 1 1 1 1 2 2 2 2 3 3 3 3 3 3 4 4 2 2 2 1 1 2 2 3 4 3 2 3 3 3 3 3 4 4 3 3 5 5 6 6 7 8 9 10 11 11 12 11 10 9 10 10 10 10 9 8 8 9 8 7 7 7
5 5 5 6 6 5 5 6 5 5 4 5 4 4 3 3 2 2 2 1 3 3 3 3 3 2 2 2 3 2 2 2 3 3 3 3 4 4 4 5 4 3 2 1 1 2 4 2 3 4 4 4 4 4 4 4 4 3 5 4 5 4 6 7 8 8 9 10 11 12 12 11 10 11 11 11 11 11 10 9 8 8 8 8 8
4 4 5 6 6 6 6 6 6 5 5 5 5 4 3 3 2 3 4 2 2 3 3 3 3 3 3 2 3 3 2 2 3 2 3 3 3 3 3 4 5 5 5 3 4 3 2 4 1 2 4 5 5 4 4 4 4 5 5 3 3 4 3 6 7 8 9 10 11 11 12 11 11 10 11 11 11 11 11 11 10 8 8 9 9
4 4 5 6 6 7 6 6 6 5 5 5 5 5 4 4 3 3 4 4 3 4 4 3 4 3 3 3 3 3 2 2 3 2 2 2 2 2 2 3 3 4 5 5 4 5 3 5 5 2 5 7 5 5 5 4 4 5 5 4 4 4 4 7 8 9 9 9 10 11 11 11 11 10 10 11 12 11 11 11 11 9 8 8 9
4 3 4 6 6 6 5 5 5 5 5 5 5 5 4 4 4 4 4 3 4 4 4 4 4 3 3 3 2 3 2 3 3 2 2 2 2 2 2 1 1 3 3 5 5 4 4 4 4 5 5 7 6 5 4 4 3 5 5 5 6 6 7 9 8 9 9 9 10 10 11 11 11 10 11 11 12 12 10 11 11 10 9 9 9
4 5 5 5 5 5 5 5 5 5 5 5 5 4 4 4 4 4 4 4 4 4 4 4 4 3 4 4 3 4 3 4 4 4 2 3 2 2 2 1 2 2 3 3 6 2 3 6 6 6 7 6 7 6 5 5 1 3 6 6 6 6 8 7 7 7 8 9 9 10 11 11 11 11 11 11 11 12 11 9 10 10 9 9 9
5 6 6 6 6 6 6 6 5 5 5 5 5 5 4 4 4 4 3 4 4 5 5 3 4 3 4 5 4 4 3 3 4 3 3 3 3 3 2 2 2 2 2 4 5 7 5 6 7 7 7 7 6 6 7 6 3 5 5 6 6 6 6 6 4 4 8 9 9 10 11 12 12 11 11 11 12 12 10 9 12 11 9 8 8
5 6 6 6 6 6 6 5 5 5 5 5 4 4 4 5 5 5 4 4 5 5 4 5 4 4 4 5 5 5 4 4 4 4 4 4 3 3 3 3 4 2 3 4 6 8 7 4 5 6 6 6 7 6 7 7 7 6 7 6 7 7 7 7 8 6 5 7 9 9 10 11 12 11 11 11 11 12 12 11 12 12 11 9 8
6 6 7 6 6 6 6 6 6 6 5 6 6 5 5 5 6 5 5 5 5 5 5 5 5 4 4 5 5 5 4 4 4 5 4 4 4 4 4 4 4 4 2 4 5 7 9 6 5 5 6 4 7 6 7 8 8 8 9 8 8 8 7 7 7 6 2 7 8 9 10 11 11 11 11 10 11 12 13 13 13 13 12 10 8
6 6 6 6 6 6 6 5 5 6 6 6 5 6 5 6 6 6 5 5 5 5 5 5 5 4 5 5 5 5 3 4 4 5 5 5 5 5 5 4 5 5 4 4 5 6 8 8 6 7 5 5 6 7 7 7 7 6 7 8 8 8 7 8 7 6 1 6 9 10 10 11 11 11 10 9 9 10 12 13 13 12 12 11 8
6 6 6 6 6 6 6 6 6 6 6 6 6 6 6 6 6 6 6 6 5 5 5 5 5 4 5 5 5 5 4 5 5 5 5 5 4 4 5 4 4 5 5 4 4 5 6 8 6 6 6 6 6 6 6 6 7 6 7 7 7 7 8 7 7 6 4 6 10 10 11 11 11 10 9 8 8 9 10 11 12 12 12 11 9
6 6 6 6 6 7 7 7 7 7 7 7 6 6 6 6 6 6 6 6 6 6 6 5 5 5 5 6 6 5 5 5 5 5 4 5 4 4 5 4 5 5 4 4 5 5 6 7 7 6 5 5 6 6 5 6 6 6 6 6 7 7 6 6 6 6 6 10 11 11 10 10 10 9 9 9 9 10 10 11 11 12 12 11 10
7 6 6 6 6 6 6 6 6 6 6 6 6 6 6 6 6 6 6 6 6 6 6 5 5 5 5 6 6 5 5 6 6 6 5 6 5 5 5 5 5 4 4 5 5 5 6 7 7 7 5 6 6 6 5 4 6 7 7 6 6 6 5 6 7 6 6 5 6 6 5 7 5 6 9 8 10 11 11 11 11 11 12 12 11
7 7 7 6 5 5 5 6 6 5 6 5 5 5 6 6 6 6 6 6 6 6 6 6 6 6 6 6 6 6 6 6 6 6 6 6 5 6 6 6 5 5 6 6 5 6 6 7 7 6 6 5 4 7 4 3 5 6 6 6 8 6 5 5 6 7 7 7 7 9 9 8 10 8 8 9 10 11 11 10 11 11 11 11 11
7 7 7 7 6 6 6 5 5 5 4 5 5 5 5 5 5 6 6 6 6 6 6 6 6 6 6 6 6 6 6 6 6 6 6 6 5 6 5 5 5 6 6 6 6 6 7 7 7 7 6 6 6 6 5 4 5 4 4 4 6 8 8 7 6 7 7 6 7 7 4 7 8 9 11 11 11 11 11 10 11 11 11 11 10
6 6 6 7 6 6 5 5 5 5 5 4 4 4 5 5 6 6 6 6 6 6 7 7 6 6 6 7 7 7 6 7 7 7 7 6 6 7 6 6 6 6 7 7 6 6 7 7 7 7 7 6 6 6 6 4 5 7 5 5 6 7 7 7 7 6 5 7 6 6 7 8 9 8 8 7 5 6 7 9 8 10 9 9 9
6 5 5 5 5 6 6 5 5 5 5 4 5 6 6 5 5 5 5 5 6 6 6 7 7 8 8 7 7 7 7 8 8 9 10 11 10 9 7 7 7 7 7 8 8 7 7 8 8 8 8 8 8 7 8 7 7 6 6 5 6 7 7 8 7 4 3 7 9 8 8 7 9 9 7 8 7 6 6 6 6 7 8 10 10
5 4 4 5 5 4 5 5 5 4 4 4 3 6 7 8 6 6 5 6 6 6 7 7 7 8 8 7 7 7 7 9 10 12 12 12 11 12 12 12 10 9 9 9 8 8 8 9 8 8 9 9 9 8 8 9 8 7 6 6 6 6 7 7 9 7 2 3 8 10 9 7 7 8 8 8 8 7 7 6 5 9 10 9 10
4 4 4 3 2 2 2 3 3 2 1 11 7 2 5 6 7 6 6 6 6 6 6 7 7 7 7 7 7 6 6 7 7 7 8 11 12 12 12 12 12 12 12 10 9 8 8 9 9 9 9 9 9 8 8 9 8 8 7 7 7 7 7 7 7 8 5 4 6 9 11 6 6 8 9 8 7 7 8 7 9 9 10 10 9
3 3 3 3 3 2 2 2 2 4 5 8 5 4 1 4 7 7 6 6 6 6 6 6 6 6 6 6 6 6 6 6 6 7 7 7 8 11 12 11 11 12 13 14 13 11 9 9 10 10 9 9 10 8 8 9 7 8 8 8 7 7 7 7 7 8 7 5 7 8 10 7 7 9 9 8 7 8 8 7 6 7 10 10 10
4 4 3 3 3 3 3 4 6 7 7 9 8 6 3 1 4 6 5 6 6 6 6 6 6 6 6 6 6 6 6 6 5 6 6 7 8 7 7 6 7 9 12 14 14 15 13 10 10 10 10 8 9 9 9 8 8 9 8 9 9 9 8 9 9 9 9 6 8 9 10 8 8 9 10 9 8 8 7 7 5 8 10 10 10
6 4 3 4 4 3 3 4 6 7 6 9 7 7 6 4 2 5 2 3 3 3 4 4 4 4 5 5 6 6 6 5 4 4 6 7 7 7 7 8 8 8 8 8 7 7 7 8 9 10 11 10 10 11 10 8 8 8 8 10 10 10 10 10 10 10 10 9 9 6 9 8 7 9 10 9 8 8 8 8 8 9 10 10 9
5 6 5 5 5 5 4 5 5 7 7 10 9 8 6 5 4 2 1 1 1 1 1 1 2 2 3 3 4 5 4 5 4 4 4 5 7 7 8 8 8 8 8 7 8 8 9 9 8 9 9 10 10 11 11 10 9 8 8 8 8 8 9 9 9 9 10 7 7 7 9 10 7 9 11 9 9 9 8 8 6 9 9 9 8
7 7 8 7 7 8 7 7 7 8 7 10 10 10 9 7 3 2 2 1 0 1 1 0 1 1 1 0 1 3 3 1 6 4 2 3 6 7 7 8 8 8 8 6 8 12 13 13 14 15 16 16 17 16 16 14 9 7 7 8 10 9 10 11 11 11 10 8 7 7 9 12 8 7 10 9 9 9 10 9 8 6 8 7 8
8 8 8 8 8 7 8 7 7 7 7 9 12 12 11 10 5 2 1 1 1 0 1 2 1 0 2 2 2 2 2 4 5 4 2 3 4 5 6 7 7 8 7 6 5 4 11 12 13 14 15 15 15 15 15 15 13 6 7 9 11 11 12 12 12 11 11 10 10 9 9 11 9 8 11 12 10 9 9 8 6 5 6 9 11
7 6 7 8 9 7 7 8 10 8 8 9 12 13 13 13 7 4 3 1 1 2 4 3 2 2 0 3 7 7 7 6 7 8 8 6 4 4 4 6 7 8 7 6 5 6 7 7 7 6 7 9 9 7 8 13 14 11 10 10 10 11 12 12 12 12 14 11 9 5 7 10 10 9 9 11 12 10 8 8 6 6 6 6 5
Wind_Direction
88 92 99 97 97 98 94 88 83 82 87 80 73 74 73 67 63 60 52 43 43 54 39 51 33 63 26 66 66 60 64 55 58 60 18 360 343 96 254 316 325 333 340 344 343 344 343 342 341 342 344 339 337 337 338 337 335 335 337 335 332 336 339 346 348 343 338 339 340 340 341 339 338 337 333 329 326 319 318 308 304 304 299 293 295
87 85 87 87 88 84 82 75 74 68 76 80 72 69 63 60 55 49 43 37 22 36 4 17 27 33 31 22 47 41 64 60 67 42 51 348 359 18 194 271 306 328 336 335 332 333 336 334 335 336 337 338 336 337 337 335 332 332 336 336 336 337 339 338 335 336 334 336 338 336 336 332 332 332 327 322 320 317 310 309 304 300 300 296 294
96 85 75 76 78 76 73 75 74 68 65 74 68 57 52 47 41 34 34 19 24 18 2 14 29 22 41 21 54 43 37 37 24 66 58 61 7 340 355 222 265 301 326 330 330 326 323 325 324 325 329 330 328 326 328 329 327 328 331 331 332 332 332 329 331 330 332 333 331 331 329 328 326 324 320 316 312 312 310 310 309 306 299 293 287
96 85 78 82 82 76 75 73 69 64 64 62 61 52 50 49 51 37 26 356 19 17 2 1 28 28 4 47 37 16 41 24 5 31 7 24 357 327 331 349 205 251 280 297 311 319 321 320 319 320 321 321 320 320 319 321 321 320 320 324 327 328 326 324 322 329 328 328 326 324 321 320 323 321 317 314 311 309 309 307 305 305 301 295 294
107 88 79 85 83 81 82 69 76 69 68 62 59 50 57 54 58 39 21 3 19 25 2 25 36 28 6 45 25 28 12 346 343 329 4 352 314 346 332 342 342 209 227 257 274 285 298 304 309 309 309 310 308 306 307 306 305 307 307 308 312 311 315 322 326 326 324 320 316 315 312 317 321 319 315 314 315 314 318 316 312 308 306 306 309
115 107 94 97 91 75 78 81 67 57 65 57 66 50 51 43 37 32 33 10 24 24 15 19 28 40 31 35 30 23 359 349 349 354 328 319 360 306 308 316 308 330 308 215 241 261 268 279 288 294 295 295 294 294 294 294 295 295 296 296 296 299 303 309 315 315 315 313 310 307 315 321 322 320 317 318 315 316 317 319 317 319 320 317 312
94 74 62 45 83 86 75 75 57 49 57 50 31 56 48 45 32 21 37 24 28 36 16 16 14 34 36 23 21 22 359 7 360 336 316 321 293 310 308 296 313 310 301 309 204 220 246 268 276 283 286 287 288 288 287 288 287 288 288 289 290 292 295 299 303 304 303 304 303 310 320 321 316 320 322 329 335 333 332 331 329 327 331 329 329
119 131 90 67 67 79 74 69 60 71 60 42 22 49 42 43 36 21 25 33 13 35 35 21 20 21 39 12 32 4 2 8 354 353 23 324 318 307 292 292 287 308 298 294 308 234 207 247 262 273 276 278 281 284 286 286 286 285 284 285 285 287 289 292 294 293 295 297 301 309 329 327 322 328 336 341 338 338 333 338 344 344 340 347 343
134 158 146 115 102 104 104 82 90 70 56 39 42 37 27 48 44 34 13 3 2 28 39 26 20 8 19 24 31 15 2 12 357 8 9 298 290 296 288 297 280 251 253 281 293 308 198 214 251 256 263 269 276 282 287 289 290 288 285 283 284 282 285 287 287 286 289 294 302 308 331 338 342 344 340 340 345 349 345 359 0 348 352 357 351
134 156 146 115 102 94 86 78 88 66 48 39 37 34 41 32 36 27 12 353 6 22 26 20 7 5 29 36 37 12 24 336 355 302 304 305 282 304 307 305 287 294 288 298 304 285 304 207 216 239 241 250 262 272 282 287 290 292 293 293 291 290 289 284 284 286 289 298 311 321 339 349 349 345 345 348 354 352 5 12 2 349 351 357 356
125 154 159 127 121 105 89 68 57 57 36 34 41 38 34 29 23 32 5 360 6 14 10 347 3 15 31 49 49 30 324 313 255 270 305 341 359 317 276 262 276 261 268 273 277 281 275 306 308 316 253 194 251 268 279 284 292 299 305 306 306 302 302 298 290 294 306 316 331 348 359 358 354 354 354 358 355 9 11 3 357 352 353 355 351
149 130 128 97 96 94 91 95 80 54 49 39 35 33 20 16 28 18 9 24 59 12 12 350 10 36 23 35 50 348 294 295 277 288 274 276 317 314 326 301 261 282 284 279 283 293 286 294 295 304 318 266 224 261 269 277 286 297 306 307 311 315 317 316 315 318 324 335 354 8 7 7 3 3 2 1 6 10 1 357 357 352 348 347 346
148 157 125 111 76 78 100 105 113 78 61 42 26 21 22 17 16 359 7 19 40 19 30 343 357 39 36 40 46 17 298 251 290 297 292 307 301 273 288 287 282 280 296 297 290 292 288 279 303 303 315 325 289 219 245 267 263 287 301 309 319 323 324 324 325 326 331 350 12 10 14 8 10 8 8 4 4 359 355 349 350 347 342 343 347
147 167 150 152 126 131 120 108 95 76 54 42 31 19 23 28 17 13 19 13 32 11 19 327 44 23 14 25 30 67 56 33 344 29 347 155 223 248 269 298 319 331 325 301 287 289 307 330 301 326 319 315 320 330 326 304 359 360 320 323 332 339 344 343 342 345 352 10 19 17 17 13 20 15 16 3 356 351 345 341 337 338 339 345 349
181 160 146 159 147 139 131 96 64 56 54 44 36 29 30 36 27 15 2 33 31 35 16 350 33 22 34 352 32 21 104 62 31 46 22 39 345 337 327 316 341 328 330 305 305 306 333 330 320 315 316 308 320 322 318 322 350 322 316 334 346 351 354 353 353 1 13 21 24 19 20 20 26 21 14 358 351 339 331 327 329 333 339 346 348
159 143 139 149 171 160 132 106 77 57 40 30 19 36 38 59 28 16 358 358 40 45 28 18 0 360 44 23 27 3 38 25 4 36 18 62 31 53 60 330 351 337 294 296 348 331 309 300 308 306 301 307 314 315 314 335 320 285 297 345 8 353 350 354 356 5 13 22 22 16 17 18 25 20 10 346 336 329 317 319 325 331 338 345 347
176 192 343 120 155 167 155 111 81 62 12 3 21 30 33 48 34 6 7 359 18 19 39 26 20 359 5 359 59 57 25 17 356 55 20 69 64 51 54 295 6 9 300 326 318 285 305 317 307 295 295 300 301 309 317 335 347 347 352 68 17 350 351 344 349 357 3 9 15 11 18 13 12 1 354 328 302 308 312 314 322 328 334 342 345
195 221 314 15 156 159 158 139 110 99 323 357 20 33 60 30 45 0 7 16 351 3 30 59 28 38 34 55 18 16 348 346 346 50 4 42 46 72 59 346 331 264 275 286 288 308 252 296 288 288 279 318 325 311 325 330 338 337 350 26 348 344 338 332 322 340 350 354 356 359 4 360 353 327 317 300 292 285 298 309 315 323 329 336 343
193 204 205 177 173 161 164 185 140 314 339 258 286 332 47 29 19 17 358 359 354 10 17 34 83 56 53 58 67 358 1 351 22 343 62 48 43 46 52 53 4 331 319 332 342 332 343 318 311 345 2 331 336 321 302 333 329 291 284 306 321 331 331 317 314 312 330 337 339 338 331 326 326 306 282 274 272 270 277 293 304 316 324 332 340
200 193 212 203 187 169 172 191 221 267 274 265 312 2 11 29 23 359 351 2 9 16 9 19 23 50 35 27 62 46 3 349 10 15 356 9 43 50 51 53 80 64 35 14 7 4 1 324 349 8 45 7 317 313 306 315 334 323 15 64 314 315 316 315 310 300 294 318 320 313 301 304 298 284 263 261 263 263 262 274 289 308 319 326 335
210 209 203 216 206 194 182 206 226 240 256 265 264 303 322 338 28 342 347 24 9 26 12 21 7 38 19 32 29 49 95 45 17 300 1 10 48 34 18 47 88 61 33 11 9 357 355 358 357 327 39 33 303 295 294 299 310 307 298 142 292 300 302 303 302 295 284 290 304 299 288 282 284 279 273 263 255 257 255 263 275 293 310 319 327
198 212 215 214 219 210 216 222 234 246 255 263 284 285 269 266 308 320 324 230 44 336 34 39 25 36 39 7 26 32 37 37 319 3 33 346 4 19 28 18 40 38 17 20 17 32 21 14 343 12 29 44 321 241 272 273 274 287 43 264 277 288 292 294 294 285 285 284 287 285 286 280 272 268 269 268 261 256 251 253 268 276 296 306 316
199 193 216 218 220 223 232 228 244 246 245 242 252 258 235 217 237 302 270 210 188 188 90 73 52 26 50 34 24 30 27 5 359 349 342 359 355 17 35 31 19 26 20 7 358 33 36 32 15 21 9 17 209 228 224 257 259 269 306 283 273 279 286 286 286 286 285 287 283 283 280 282 279 267 264 268 264 258 255 253 258 261 272 288 300
208 208 209 214 216 225 230 236 237 243 240 237 253 255 243 233 250 283 268 206 213 220 318 46 23 38 4 46 26 21 33 360 11 349 321 350 334 346 21 351 32 37 19 353 33 36 37 38 33 26 354 353 302 350 277 266 253 255 268 249 259 279 288 287 286 287 286 286 289 288 284 280 276 272 266 267 265 259 256 254 254 255 252 260 277
211 215 211 210 209 218 223 226 229 236 253 253 247 247 259 252 258 275 272 213 208 227 261 288 331 348 347 12 347 9 23 20 11 0 19 319 295 333 20 4 334 34 25 14 14 30 37 34 30 24 26 349 4 352 325 290 312 134 252 281 244 272 280 286 287 288 289 290 292 292 289 277 279 277 273 268 264 258 256 254 252 250 240 241 256
210 214 217 209 214 216 218 225 232 240 244 246 245 247 248 258 249 261 251 226 243 252 280 296 273 244 301 312 316 345 347 6 12 346 3 346 342 6 349 330 302 9 38 358 358 332 69 43 34 38 31 20 22 1 333 324 309 109 268 297 291 266 276 286 289 290 288 290 291 292 292 288 276 275 276 274 271 261 248 244 247 248 241 239 242
215 213 212 213 215 215 218 226 228 233 234 236 236 236 243 259 269 268 282 230 236 260 280 281 274 270 269 269 302 286 341 331 338 0 351 351 347 353 349 351 341 329 353 341 5 17 5 15 26 64 48 27 7 4 355 350 345 356 307 276 303 297 286 287 288 287 288 289 290 291 293 291 288 282 274 275 277 275 269 261 240 231 232 229 234
210 204 203 212 210 214 217 225 229 226 222 225 232 233 227 244 256 256 261 240 245 247 268 275 272 274 285 298 283 287 297 315 335 345 349 347 334 333 330 337 348 337 341 332 342 356 21 352 46 62 29 9 356 354 342 314 9 336 257 313 325 316 291 295 296 296 292 290 291 292 292 290 289 282 280 276 281 279 275 271 262 245 234 222 225
215 204 204 200 206 213 218 223 213 219 218 220 222 224 229 238 240 245 257 259 257 264 269 270 278 280 277 273 288 299 301 310 293 312 348 317 308 313 302 324 336 323 332 328 334 334 344 356 341 32 6 352 343 348 344 334 24 326 348 333 331 310 1 321 309 302 297 293 293 292 291 291 289 286 282 282 285 282 280 278 271 262 252 224 225
220 218 202 196 199 205 220 222 222 214 218 218 215 218 222 235 236 242 249 264 265 263 265 274 277 268 273 275 274 282 293 275 264 289 306 315 299 293 307 309 277 308 320 309 314 309 320 330 328 339 346 335 330 332 335 324 83 301 339 328 329 341 350 307 298 298 299 297 296 295 295 293 290 289 289 287 287 286 280 278 278 268 254 233 229
205 208 207 206 202 205 212 219 212 218 219 225 219 221 221 237 236 241 226 228 246 260 262 261 273 270 268 275 276 285 299 307 304 282 305 302 305 295 302 303 287 288 302 300 299 308 324 313 319 326 323 325 327 326 324 322 342 316 314 321 314 342 299 283 275 288 293 298 300 300 300 297 294 292 290 288 286 288 285 276 279 275 265 254 241
207 201 210 209 207 212 212 216 221 221 221 224 224 222 224 239 246 247 230 221 241 253 268 268 275 275 274 271 272 279 291 296 294 290 276 288 299 298 298 305 295 287 284 291 289 296 299 307 316 314 322 332 322 325 336 321 343 196 315 299 307 279 282 318 285 266 294 300 306 306 305 304 300 297 293 290 289 288 286 276 286 284 275 257 253
197 199 204 209 209 214 220 218 223 220 223 230 229 230 230 234 240 251 254 238 245 255 256 266 267 262 270 278 282 283 283 286 289 292 282 270 271 268 274 272 278 274 276 292 296 301 301 297 297 304 319 321 321 325 323 330 327 334 316 310 309 311 313 317 319 307 284 303 309 308 305 303 302 300 297 294 291 290 289 288 290 288 287 285 271
199 202 203 205 208 211 219 217 220 221 215 214 223 221 227 234 242 238 233 235 245 255 264 266 265 265 272 278 280 283 270 276 287 286 284 287 277 277 276 277 282 283 264 280 296 298 300 301 298 314 307 303 306 316 324 319 323 320 316 314 309 313 316 314 316 316 275 296 304 301 298 298 301 301 299 297 293 292 292 293 292 292 292 292 284
193 206 204 206 196 202 213 217 217 222 218 220 216 215 219 224 234 246 249 242 246 256 257 261 266 268 270 271 275 273 262 269 272 280 288 287 288 288 289 292 292 289 282 262 278 291 300 302 305 302 309 312 306 312 309 307 303 297 297 307 316 318 317 314 311 318 311 287 295 294 293 294 297 299 301 299 296 293 293 293 294 294 294 293 287
195 198 206 205 197 197 207 208 213 218 215 218 217 215 217 222 226 228 232 234 242 249 256 266 270 267 272 275 278 283 285 280 281 285 284 283 284 275 276 274 272 280 281 265 250 278 293 297 301 299 306 306 301 298 298 299 301 306 305 310 304 305 314 318 311 308 324 290 282 282 285 289 291 296 300 301 298 293 290 290 290 292 291 290 287
212 201 195 201 200 199 209 210 211 212 216 217 217 222 220 220 224 231 233 229 233 238 248 255 258 263 267 271 282 283 280 283 284 284 290 290 287 281 280 280 275 279 274 262 267 266 275 284 295 290 283 279 283 286 292 305 309 302 297 294 303 302 301 311 310 310 278 245 251 256 263 271 279 285 296 302 301 294 289 287 288 289 290 289 288
221 221 212 207 205 210 217 222 223 224 222 220 219 227 227 221 218 227 229 233 238 240 246 248 251 254 263 267 272 273 276 276 285 291 293 292 287 286 288 289 289 288 275 271 266 267 268 275 282 294 284 293 297 293 292 288 304 309 308 304 295 284 282 304 318 319 324 328 333 316 265 251 266 281 285 293 295 292 288 287 287 287 287 289 288
225 231 224 222 209 225 225 231 237 236 234 234 228 230 235 234 229 230 239 239 238 240 244 251 256 255 257 261 264 264 265 265 273 280 283 281 281 286 282 284 286 279 280 278 275 275 278 281 283 280 288 287 282 295 294 278 282 272 288 309 312 315 295 296 307 315 320 319 300 247 255 286 290 287 298 284 278 274 275 277 281 279 283 284 286
225 230 235 230 224 225 232 238 237 244 241 243 237 237 241 244 243 240 240 245 251 248 250 249 255 258 257 258 264 263 259 261 262 269 273 278 284 286 286 282 283 279 284 288 286 286 287 288 290 299 296 293 286 278 276 264 281 273 253 287 301 307 313 309 301 306 310 305 309 328 268 251 258 241 247 250 246 254 262 262 256 259 267 277 282
224 224 227 233 232 232 231 231 238 238 241 242 243 240 243 240 244 253 250 248 250 255 258 262 260 256 258 260 259 262 256 249 253 261 271 278 283 287 284 282 279 282 285 289 287 288 287 289 293 290 289 291 290 291 302 296 299 307 306 291 287 285 291 298 302 299 303 308 304 309 318 322 315 316 319 316 302 271 268 235 257 245 252 266 281
207 211 214 219 229 230 229 224 227 233 233 239 222 219 237 261 267 271 267 261 263 264 265 269 269 265 264 267 271 258 246 246 249 248 245 248 244 255 273 281 284 287 290 291 290 289 291 293 292 296 297 298 302 309 306 304 300 288 292 286 292 304 306 301 295 290 305 316 317 310 306 311 314 310 307 306 311 298 312 307 338 330 313 300 293
193 180 199 200 212 219 226 232 225 227 236 238 208 215 224 236 255 263 263 262 260 256 256 257 265 270 273 273 276 260 239 234 235 234 244 244 243 243 248 253 260 270 282 287 286 289 289 288 291 288 291 295 297 305 303 304 305 305 301 296 290 296 303 312 312 309 246 316 312 307 301 307 302 301 303 301 300 306 308 310 329 308 298 290 285
162 181 172 152 148 187 206 217 222 224 103 32 8 352 240 230 226 248 255 258 256 254 256 260 263 269 273 275 274 275 269 270 282 273 238 231 235 242 243 245 247 248 249 256 270 279 281 287 288 288 290 289 292 295 300 304 306 306 300 294 284 283 291 290 290 290 303 295 297 297 294 297 294 290 290 287 292 295 305 298 285 284 288 289 285
152 164 149 152 136 128 121 133 117 94 73 18 13 23 169 211 215 228 248 251 254 255 259 260 266 269 273 276 278 278 283 274 258 265 274 275 245 232 240 246 247 242 242 239 239 249 271 274 277 279 275 282 285 286 289 295 300 292 293 288 289 284 278 278 276 287 287 286 283 278 282 289 290 281 279 279 284 291 294 275 250 264 282 288 286
151 158 170 132 111 105 98 105 86 61 45 10 0 21 18 288 193 197 233 240 244 255 260 264 269 271 273 276 277 276 280 279 272 272 278 279 286 282 272 265 267 246 225 224 230 234 238 255 266 272 275 274 275 280 284 281 282 282 286 285 288 284 280 274 283 280 277 269 268 285 282 278 272 279 278 279 280 279 275 273 263 271 273 276 281
106 100 103 109 98 102 116 114 94 69 45 12 17 14 10 343 172 218 239 234 231 230 238 246 256 265 270 271 274 279 285 284 286 296 289 282 281 278 277 279 274 276 276 265 250 239 220 228 242 252 263 266 268 273 277 275 269 273 278 284 286 285 284 283 275 264 265 249 249 257 274 283 277 274 274 281 285 284 285 282 244 245 259 271 281
90 105 104 106 116 121 118 107 96 72 50 19 14 18 18 9 278 214 148 270 272 272 214 206 222 232 248 263 271 276 286 285 358 29 328 302 285 278 276 276 276 273 269 256 239 248 263 275 272 272 275 284 293 289 291 293 291 283 287 280 275 269 271 271 270 278 278 280 222 240 272 281 276 275 283 289 289 284 285 284 267 223 245 259 265
97 92 95 88 87 89 92 94 86 70 52 19 13 19 20 10 306 121 127 135 130 292 22 4 191 151 121 57 276 286 282 328 57 29 22 269 274 275 277 279 281 284 281 283 207 216 233 240 251 263 271 274 276 278 279 277 266 285 288 281 270 271 273 279 283 288 288 295 276 245 270 285 287 279 280 284 283 283 284 281 279 232 207 227 238
90 87 90 87 81 84 89 92 94 89 66 36 25 22 19 13 3 91 99 113 153 281 259 281 299 343 88 71 348 342 348 52 38 47 344 269 270 275 280 281 283 281 283 288 295 247 208 223 237 248 255 263 266 267 268 268 262 223 243 254 271 286 284 283 286 290 292 291 285 276 270 271 293 286 291 294 288 268 268 271 268 273 207 216 219
75 79 79 81 78 57 56 83 77 72 67 49 35 30 25 16 9 70 40 7 338 339 302 285 292 293 241 110 66 43 43 45 22 8 355 323 292 285 283 285 281 282 290 306 301 303 311 309 291 270 265 244 245 246 247 238 241 214 223 242 270 272 278 282 285 290 290 283 294 238 241 281 293 291 297 300 297 295 292 288 281 280 283 285 262